Location: Barrio Las Umbrías
(40.4173°N, 4.8685°W)
Time: 12:27:37
(UTC+00:00)

Okean 1 - Pass Details

Date: 17 August 2022
Orbit: 530 x 553 km, 82.5° (Epoch: 28 September)

Event Time Altitude Azimuth Distance (km) Brightness Sun altitude
Rises 21:25:23 0° 356° (N) 2,729 7.6 -22.4°
Reaches altitude 10° 21:27:34 10° 360° (N) 1,834 6.5 -22.7°
Enters shadow 21:30:58 53° 39° (NE) 681 3.7 -23.1°
